Location: Friedrichshafen
(47.6598°N, 9.4819°E)
Time: 08:36:13
(UTC+01:00)

ISS - Pass Details

Date: 09 January 2018
Orbit: 402 x 406 km, 51.6° (Epoch: 16 January)

Event Time Altitude Azimuth Distance (km) Brightness Sun altitude
Exits shadow 07:22:52 10° 292° (WNW) 1,453 -1.7 -7.6°
Maximum altitude 07:26:07 74° 207° (SSW) 426 -3.7 -7.2°
Drops below altitude 10° 07:29:23 10° 122° (ESE) 1,463 0.8 -6.7°
Sets 07:31:28 0° 121° (ESE) 2,321 2.7 -6.3°
